Location: ??????
(56.0120°N, 39.1740°E)
Time: 11:44:11
(UTC+00:00)

Cosmos 1447 Rocket - Pass Details

Date: 14 April 2026
Orbit: 953 x 995 km, 82.9° (Epoch: 10 May)

Event Time Altitude Azimuth Distance (km) Brightness Sun altitude
Rises 19:40:55 0° 348° (NNW) 3,716 8.9 -21.0°
Reaches altitude 10° 19:43:27 10° 349° (N) 2,759 7.9 -21.1°
Maximum altitude 19:49:48 85° 77° (ENE) 991 4.4 -21.5°
Enters shadow 19:52:11 41° 165° (SSE) 1,378 4.8 -21.7°
